Date String (YYYY-MM-DD hh:mm:ss) UTC,Instrument flags,Ambient pressure (hPa),Sample flow (lpm),Bypass flow (lpm),Sample temperature (°C),Ambient temperature (°C),ASC tube jacket temperature (°C),LED temperature (°C),Box temperature (°C),Sample RH (%),Span deviation,Mass concentration (μg/m³),Mass concentration (μg/m³),Mass concentration (μg/m³)
DateTimeUTC,F1_M11,P_M11,Q1_M11,Q2_M11,T1_M11,T2_M11,T3_M11,T4_M11,T5_M11,U1_M11,ZSPAN_M11,X2_M11,X0_M11,X1_M11
2022-06-23 05:00:00,,0828.3,5.01,0.00,29.4,28.3,00.0,38.2,31.3,16.6,0000.0,0004.80,0018.26,0003.43
2022-06-23 05:01:00,,0828.3,5.01,0.00,29.4,28.4,00.0,38.2,31.4,16.6,0000.0,0004.80,0017.14,0003.44
2022-06-23 05:02:00,,0828.3,5.00,0.00,29.5,28.5,00.0,38.3,31.4,16.6,0000.0,0004.76,0015.86,0003.45
2022-06-23 05:03:00,,0828.2,5.00,0.00,29.5,28.5,00.0,38.3,31.4,16.5,0000.0,0004.81,0016.40,0003.45
2022-06-23 05:04:00,,0828.2,5.00,0.00,29.5,28.5,00.0,38.3,31.5,16.5,0000.0,0004.84,0016.90,0003.45
2022-06-23 05:05:00,,0828.2,5.01,0.00,29.5,28.6,00.0,38.3,31.5,16.5,0000.0,0004.85,0017.17,0003.45
2022-06-23 05:06:00,,0828.3,5.00,0.00,29.6,28.6,00.0,38.3,31.5,16.4,0000.0,0004.87,0017.31,0003.47
2022-06-23 05:07:00,,0828.2,5.00,0.00,29.6,28.7,00.0,38.3,31.5,16.3,0000.0,0004.87,0017.23,0003.48
2022-06-23 05:08:00,,0828.2,4.99,0.00,29.6,28.7,00.0,38.4,31.6,16.3,0000.0,0004.92,0016.59,0003.50
2022-06-23 05:09:00,,0828.2,5.01,0.00,29.6,28.4,00.0,38.4,31.5,16.4,0000.0,0004.94,0016.71,0003.51
2022-06-23 05:10:00,,0828.2,5.00,0.00,29.6,27.6,00.0,38.3,31.3,16.4,0000.0,0004.97,0017.02,0003.51
2022-06-23 05:11:00,,0828.2,4.99,0.00,29.5,27.3,00.0,38.2,31.2,16.5,0000.0,0005.00,0016.73,0003.53
2022-06-23 05:12:00,,0828.2,5.01,0.00,29.4,27.3,00.0,38.2,31.1,16.5,0000.0,0005.00,0017.01,0003.54
2022-06-23 05:13:00,,0828.1,4.99,0.00,29.4,27.3,00.0,38.2,31.1,16.5,0000.0,0005.04,0017.72,0003.54
2022-06-23 05:14:00,,0828.2,5.00,0.00,29.4,27.4,00.0,38.2,31.1,16.6,0000.0,0004.93,0017.58,0003.55
2022-06-23 05:15:00,,0828.2,5.00,0.00,29.4,27.6,00.0,38.2,31.1,16.3,0000.0,0004.86,0016.19,0003.55
2022-06-23 05:16:00,,0828.2,5.00,0.00,29.3,27.7,00.0,38.2,31.2,16.3,0000.0,0004.88,0016.91,0003.55
2022-06-23 05:17:00,,0828.1,4.99,0.00,29.4,27.8,00.0,38.2,31.2,16.4,0000.0,0004.87,0016.64,0003.56
2022-06-23 05:18:00,,0828.3,5.00,0.00,29.4,27.9,00.0,38.2,31.2,16.4,0000.0,0004.87,0016.90,0003.55
2022-06-23 05:19:00,,0828.1,4.99,0.00,29.4,28.0,00.0,38.2,31.3,16.2,0000.0,0004.91,0016.95,0003.55
2022-06-23 05:20:00,,0828.1,5.00,0.00,29.4,28.1,00.0,38.2,31.3,16.0,0000.0,0004.91,0016.76,0003.55
2022-06-23 05:21:00,,0828.1,4.99,0.00,29.4,28.2,00.0,38.2,31.3,16.1,0000.0,0004.89,0017.10,0003.55
2022-06-23 05:22:00,,0828.1,5.00,0.00,29.4,28.3,00.0,38.2,31.3,16.0,0000.0,0004.86,0016.86,0003.54
2022-06-23 05:23:00,,0828.1,5.01,0.00,29.4,28.3,00.0,38.3,31.4,15.9,0000.0,0004.88,0016.79,0003.53
2022-06-23 05:24:00,,0828.1,5.01,0.00,29.5,28.4,00.0,38.3,31.4,15.9,0000.0,0004.83,0016.82,0003.52
2022-06-23 05:25:00,,0828.1,5.00,0.00,29.5,28.4,00.0,38.3,31.4,15.9,0000.0,0004.86,0016.36,0003.53
2022-06-23 05:26:00,,0828.1,4.99,0.00,29.5,28.5,00.0,38.3,31.4,16.2,0000.0,0004.91,0016.45,0003.54
2022-06-23 05:27:00,,0828.1,5.02,0.00,29.5,28.5,00.0,38.3,31.5,16.2,0000.0,0004.87,0015.81,0003.55
2022-06-23 05:28:00,,0828.1,5.00,0.00,29.6,28.6,00.0,38.3,31.5,16.2,0000.0,0004.87,0016.52,0003.55
2022-06-23 05:29:00,,0828.1,5.00,0.00,29.6,28.6,00.0,38.3,31.5,16.2,0000.0,0004.88,0017.00,0003.55
2022-06-23 05:30:00,,0828.1,4.99,0.00,29.6,28.7,00.0,38.4,31.5,16.2,0000.0,0004.86,0017.32,0003.55
2022-06-23 05:31:00,,0828.1,5.00,0.00,29.6,28.7,00.0,38.4,31.6,16.2,0000.0,0004.90,0017.45,0003.56
2022-06-23 05:32:00,,0828.1,5.00,0.00,29.7,28.7,00.0,38.4,31.6,16.3,0000.0,0004.91,0016.98,0003.57
2022-06-23 05:33:00,,0828.1,5.00,0.00,29.7,28.7,00.0,38.4,31.6,16.4,0000.0,0004.96,0017.16,0003.58
2022-06-23 05:34:00,,0828.1,5.00,0.00,29.7,28.1,00.0,38.4,31.4,16.4,0000.0,0005.00,0016.81,0003.60
2022-06-23 05:35:00,,0828.1,5.00,0.00,29.6,27.4,00.0,38.3,31.2,16.5,0000.0,0005.04,0016.46,0003.62
2022-06-23 05:36:00,,0828.1,4.99,0.00,29.5,27.2,00.0,38.3,31.2,16.7,0000.0,0005.09,0016.39,0003.63
2022-06-23 05:37:00,,0828.1,5.00,0.00,29.4,27.2,00.0,38.3,31.1,16.8,0000.0,0005.08,0016.53,0003.64
2022-06-23 05:38:00,,0828.2,4.99,0.00,29.4,27.3,00.0,38.3,31.1,17.0,0000.0,0005.16,0016.23,0003.65
2022-06-23 05:39:00,,0828.1,5.00,0.00,29.4,27.5,00.0,38.2,31.1,16.9,0000.0,0005.19,0015.68,0003.66
2022-06-23 05:40:00,,0828.1,5.00,0.00,29.4,27.6,00.0,38.2,31.1,16.9,0000.0,0005.22,0014.84,0003.67
2022-06-23 05:41:00,,0828.1,4.99,0.00,29.4,27.7,00.0,38.2,31.2,16.8,0000.0,0005.24,0014.53,0003.69
2022-06-23 05:42:00,,0828.1,5.00,0.00,29.4,27.8,00.0,38.2,31.2,16.8,0000.0,0005.23,0015.83,0003.69
2022-06-23 05:43:00,,0828.1,4.99,0.00,29.4,28.0,00.0,38.2,31.2,16.7,0000.0,0005.23,0016.50,0003.70
2022-06-23 05:44:00,,0828.1,5.01,0.00,29.4,28.1,00.0,38.2,31.3,16.7,0000.0,0005.25,0016.21,0003.71
2022-06-23 05:45:00,,0828.1,5.00,0.00,29.4,28.1,00.0,38.2,31.3,16.7,0000.0,0005.22,0016.25,0003.70
2022-06-23 05:46:00,,0828.1,5.00,0.00,29.4,28.2,00.0,38.2,31.3,16.8,0000.0,0005.19,0017.23,0003.70
2022-06-23 05:47:00,,0828.1,4.99,0.00,29.4,28.3,00.0,38.3,31.3,16.5,0000.0,0005.19,0017.77,0003.70
2022-06-23 05:48:00,,0828.1,5.00,0.00,29.5,28.3,00.0,38.3,31.4,16.3,0000.0,0005.16,0017.81,0003.68
2022-06-23 05:49:00,,0828.1,5.00,0.00,29.5,28.4,00.0,38.3,31.4,16.2,0000.0,0005.12,0018.10,0003.67
2022-06-23 05:50:00,,0828.0,5.01,0.00,29.5,28.4,00.0,38.3,31.4,16.1,0000.0,0005.10,0018.91,0003.65
2022-06-23 05:51:00,,0828.0,5.00,0.00,29.5,28.5,00.0,38.3,31.4,15.9,0000.0,0005.13,0019.51,0003.63
2022-06-23 05:52:00,,0828.0,5.00,0.00,29.5,28.5,00.0,38.3,31.4,15.8,0000.0,0005.12,0019.23,0003.59
2022-06-23 05:53:00,,0828.0,5.00,0.00,29.6,28.6,00.0,38.3,31.5,16.1,0000.0,0005.15,0018.42,0003.58
2022-06-23 05:54:00,,0828.0,5.00,0.00,29.6,28.6,00.0,38.4,31.5,16.1,0000.0,0005.12,0017.32,0003.57
2022-06-23 05:55:00,,0828.1,4.98,0.00,29.6,28.6,00.0,38.4,31.5,16.4,0000.0,0005.05,0017.24,0003.56
2022-06-23 05:56:00,,0828.0,5.00,0.00,29.6,28.7,00.0,38.4,31.6,16.3,0000.0,0005.11,0017.68,0003.57
2022-06-23 05:57:00,,0828.0,5.00,0.00,29.6,28.7,00.0,38.4,31.6,16.5,0000.0,0005.16,0017.17,0003.57
2022-06-23 05:58:00,,0828.0,5.01,0.00,29.7,28.7,00.0,38.4,31.6,16.4,0000.0,0005.17,0016.77,0003.58
2022-06-23 05:59:00,,0828.0,4.99,0.00,29.7,28.7,00.0,38.4,31.6,16.3,0000.0,0005.20,0017.46,0003.60
